Location: *
(41.7492°S, 135.4150°W)
Time: 21:42:19
(UTC+00:00)

METEOR M2 - Pass Details

Date: 08 July 2022
Orbit: 818 x 827 km, 98.4° (Epoch: 17 August)

Event Time Altitude Azimuth Distance (km) Brightness Sun altitude
Rises 15:07:40 0° 13° (NNE) 3,345 ? -14.6°
Reaches altitude 10° 15:10:00 10° 12° (NNE) 2,419 ? -14.2°
Maximum altitude 15:15:22 83° 284° (WNW) 840 ? -13.2°
Drops below altitude 10° 15:20:49 10° 195° (SSW) 2,448 ? -12.2°
Sets 15:23:11 0° 193° (SSW) 3,387 ? -11.8°
